RADUGA 10 [-]

Last updated on Jan. 20, 2021, 6:22 a.m. UTC

1 12897U 81102A   21019.85063943 -.00000157  00000-0  00000-0 0  9994
2 12897  11.1546 314.3035 0003314 143.9465  50.4711  1.00256309 97548
UTC
Height (km)
Latitude
Longitude
Inclination
Orbital Period
UTC large
Height (km)
Speed (km/s)
/
Latitude / Longitude
Inclination (degrees)
Orbital Period (minutes)
Azimuth
Elevation
Range (km)
Doppler Factor
iOS Compass Heading
iOS Angle

Next 30 passes for location: Hong Kong

Rise time Rise Azimuth (degrees) Set time Set Azimuth (degrees) Duration Max altitude (degrees)

No matching passes for this satellites